"Sample Date","Sample Time","Sample Value","Units","Flow Rate","Sample Interval","Number Channels","Micron Size 0","Counts/Channel 0","Micron Size 1","Counts/Channel 1","Micron Size 2","Counts/Channel 2","Micron Size 3","Counts/Channel 3","Micron Size 4","Counts/Channel 4","Micron Size 5","Counts/Channel 5","Micron Size 6","Counts/Channel 6","Micron Size 7","Counts/Channel 7","Micron Size 8","Counts/Channel 8","Micron Size 9","Counts/Channel 9","Micron Size 10","Counts/Channel 10","Micron Size 11","Counts/Channel 11","Micron Size 12","Counts/Channel 12","Micron Size 13","Counts/Channel 13","Micron Size 14","Counts/Channel 14","Micron Size 15","Counts/Channel 15","Micron Size 16","Counts/Channel 16","Micron Size 17","Counts/Channel 17","Micron Size 18","Counts/Channel 18","Micron Size 19","Counts/Channel 19","Micron Size 20","Counts/Channel 20","Micron Size 21","Counts/Channel 21","Micron Size 22","Counts/Channel 22","Micron Size 23","Counts/Channel 23","Micron Size 24","Counts/Channel 24","Micron Size 25","Counts/Channel 25","Micron Size 26","Counts/Channel 26","Micron Size 27","Counts/Channel 27","Micron Size 28","Counts/Channel 28","Micron Size 29","Counts/Channel 29","Micron Size 30","Counts/Channel 30","Micron Size 31","Counts/Channel 31"
"03/11/08","00:00:04",28927.000,"cc",28346.316,6.00,6,0.100,21350.000,0.200,3365.000,0.300,1637.000,0.500,1892.000,1.000,683.000,5.000,0
"03/11/08","00:00:10",28960.000,"cc",28261.959,6.00,6,0.100,21324.000,0.200,3495.000,0.300,1589.000,0.500,1867.000,1.000,685.000,5.000,0
"03/11/08","00:00:16",29304.000,"cc",28292.566,6.00,6,0.100,21585.000,0.200,3512.000,0.300,1639.000,0.500,1897.000,1.000,671.000,5.000,0
"03/11/08","00:00:22",28833.000,"cc",28244.381,6.00,6,0.100,21201.000,0.200,3479.000,0.300,1668.000,0.500,1831.000,1.000,654.000,5.000,0
"03/11/08","00:00:28",28937.000,"cc",28358.324,6.00,6,0.100,21245.000,0.200,3502.000,0.300,1653.000,0.500,1847.000,1.000,690.000,5.000,0
"03/11/08","00:00:34",29198.000,"cc",28323.525,6.00,6,0.100,21478.000,0.200,3471.000,0.300,1661.000,0.500,1887.000,1.000,701.000,5.000,0
"03/11/08","00:00:40",29058.000,"cc",28333.617,6.00,6,0.100,21333.000,0.200,3530.000,0.300,1607.000,0.500,1926.000,1.000,662.000,5.000,0
"03/11/08","00:00:46",29314.000,"cc",28405.584,6.00,6,0.100,21446.000,0.200,3524.000,0.300,1665.000,0.500,1979.000,1.000,700.000,5.000,0
"03/11/08","00:00:52",29204.000,"cc",28283.617,6.00,6,0.100,21464.000,0.200,3520.000,0.300,1606.000,0.500,1907.000,1.000,707.000,5.000,0
"03/11/08","00:00:58",28312.000,"cc",28278.516,6.00,6,0.100,21059.000,0.200,3362.000,0.300,1493.000,0.500,1765.000,1.000,633.000,5.000,0
"03/11/08","00:01:04",28581.000,"cc",28258.209,6.00,6,0.100,21093.000,0.200,3476.000,0.300,1529.000,0.500,1816.000,1.000,667.000,5.000,0
"03/11/08","00:01:10",29184.000,"cc",28360.008,6.00,6,0.100,21482.000,0.200,3486.000,0.300,1679.000,0.500,1859.000,1.000,678.000,5.000,0
"03/11/08","00:01:16",28736.000,"cc",28250.506,6.00,6,0.100,21414.000,0.200,3394.000,0.300,1506.000,0.500,1822.000,1.000,600.000,5.000,0
"03/11/08","00:01:22",28636.000,"cc",28367.588,6.00,6,0.100,21095.000,0.200,3406.000,0.300,1589.000,0.500,1831.000,1.000,715.000,5.000,0
"03/11/08","00:01:28",28189.000,"cc",28277.266,6.00,6,0.100,20877.000,0.200,3449.000,0.300,1475.000,0.500,1779.000,1.000,609.000,5.000,0
"03/11/08","00:01:34",29003.000,"cc",28321.449,6.00,6,0.100,21372.000,0.200,3537.000,0.300,1615.000,0.500,1817.000,1.000,662.000,5.000,0
"03/11/08","00:01:40",28470.000,"cc",28396.561,6.00,6,0.100,20962.000,0.200,3435.000,0.300,1610.000,0.500,1839.000,1.000,624.000,5.000,0
"03/11/08","00:01:46",28214.000,"cc",28323.779,6.00,6,0.100,20852.000,0.200,3425.000,0.300,1540.000,0.500,1735.000,1.000,662.000,5.000,0
"03/11/08","00:01:52",28243.000,"cc",28361.570,6.00,6,0.100,20914.000,0.200,3476.000,0.300,1482.000,0.500,1699.000,1.000,672.000,5.000,0
"03/11/08","00:01:58",27901.000,"cc",28305.398,6.00,6,0.100,20753.000,0.200,3382.000,0.300,1403.000,0.500,1729.000,1.000,634.000,5.000,0
"03/11/08","00:02:04",28130.000,"cc",28287.018,6.00,6,0.100,20810.000,0.200,3472.000,0.300,1538.000,0.500,1698.000,1.000,612.000,5.000,0
"03/11/08","00:02:10",28368.000,"cc",28341.850,6.00,6,0.100,20882.000,0.200,3515.000,0.300,1529.000,0.500,1826.000,1.000,616.000,5.000,0
"03/11/08","00:02:16",28491.000,"cc",28236.285,6.00,6,0.100,20958.000,0.200,3523.000,0.300,1569.000,0.500,1787.000,1.000,654.000,5.000,0
"03/11/08","00:02:22",28190.000,"cc",28278.949,6.00,6,0.100,21008.000,0.200,3374.000,0.300,1470.000,0.500,1713.000,1.000,625.000,5.000,0
"03/11/08","00:02:28",28205.000,"cc",28448.680,6.00,6,0.100,20711.000,0.200,3560.000,0.300,1581.000,0.500,1734.000,1.000,619.000,5.000,0
"03/11/08","00:02:34",28473.000,"cc",28379.252,6.00,6,0.100,21097.000,0.200,3509.000,0.300,1548.000,0.500,1714.000,1.000,605.000,5.000,0
"03/11/08","00:02:40",27850.000,"cc",28268.190,6.00,6,0.100,20677.000,0.200,3465.000,0.300,1411.000,0.500,1671.000,1.000,626.000,5.000,0
"03/11/08","00:02:46",28133.000,"cc",28245.662,6.00,6,0.100,20773.000,0.200,3432.000,0.300,1527.000,0.500,1765.000,1.000,636.000,5.000,0
"03/11/08","00:02:52",28590.000,"cc",28304.668,6.00,6,0.100,20996.000,0.200,3494.000,0.300,1576.000,0.500,1862.000,1.000,662.000,5.000,0
"03/11/08","00:02:58",28017.000,"cc",28325.356,6.00,6,0.100,20743.000,0.200,3368.000,0.300,1572.000,0.500,1761.000,1.000,573.000,5.000,0
"03/11/08","00:03:04",28342.000,"cc",28279.736,6.00,6,0.100,20918.000,0.200,3506.000,0.300,1574.000,0.500,1715.000,1.000,629.000,5.000,0
"03/11/08","00:03:10",28901.000,"cc",28254.859,6.00,6,0.100,21392.000,0.200,3566.000,0.300,1504.000,0.500,1797.000,1.000,642.000,5.000,0
"03/11/08","00:03:16",28102.000,"cc",28416.635,6.00,6,0.100,21009.000,0.200,3387.000,0.300,1418.000,0.500,1699.000,1.000,589.000,5.000,0
"03/11/08","00:03:22",28057.000,"cc",28385.135,6.00,6,0.100,20686.000,0.200,3442.000,0.300,1553.000,0.500,1730.000,1.000,646.000,5.000,0
"03/11/08","00:03:28",28310.000,"cc",28340.330,6.00,6,0.100,20846.000,0.200,3531.000,0.300,1516.000,0.500,1785.000,1.000,632.000,5.000,0
"03/11/08","00:03:34",28354.000,"cc",28306.676,6.00,6,0.100,21052.000,0.200,3376.000,0.300,1579.000,0.500,1699.000,1.000,648.000,5.000,0
"03/11/08","00:03:40",27966.000,"cc",28189.481,6.00,6,0.100,20747.000,0.200,3419.000,0.300,1438.000,0.500,1742.000,1.000,620.000,5.000,0
"03/11/08","00:03:46",28110.000,"cc",28319.381,6.00,6,0.100,20742.000,0.200,3435.000,0.300,1569.000,0.500,1694.000,1.000,670.000,5.000,0
"03/11/08","00:03:52",28066.000,"cc",28448.094,6.00,6,0.100,20766.000,0.200,3386.000,0.300,1495.000,0.500,1773.000,1.000,646.000,5.000,0
"03/11/08","00:03:58",28217.000,"cc",28224.977,6.00,6,0.100,20924.000,0.200,3405.000,0.300,1496.000,0.500,1732.000,1.000,660.000,5.000,0
"03/11/08","00:04:04",28228.000,"cc",28311.986,6.00,6,0.100,20902.000,0.200,3437.000,0.300,1474.000,0.500,1777.000,1.000,638.000,5.000,0
"03/11/08","00:04:10",27924.000,"cc",28395.084,6.00,6,0.100,20820.000,0.200,3311.000,0.300,1489.000,0.500,1693.000,1.000,611.000,5.000,0
"03/11/08","00:04:16",27987.000,"cc",28299.287,6.00,6,0.100,20848.000,0.200,3423.000,0.300,1505.000,0.500,1615.000,1.000,596.000,5.000,0
"03/11/08","00:04:22",28667.000,"cc",28259.803,6.00,6,0.100,21168.000,0.200,3446.000,0.300,1535.000,0.500,1832.000,1.000,686.000,5.000,0
"03/11/08","00:04:28",28317.000,"cc",28331.113,6.00,6,0.100,20978.000,0.200,3470.000,0.300,1483.000,0.500,1775.000,1.000,611.000,5.000,0
"03/11/08","00:04:34",28545.000,"cc",28366.225,6.00,6,0.100,21072.000,0.200,3431.000,0.300,1576.000,0.500,1851.000,1.000,615.000,5.000,0
"03/11/08","00:04:40",28512.000,"cc",28295.537,6.00,6,0.100,20935.000,0.200,3479.000,0.300,1601.000,0.500,1852.000,1.000,645.000,5.000,0
"03/11/08","00:04:46",28566.000,"cc",28380.391,6.00,6,0.100,20935.000,0.200,3511.000,0.300,1633.000,0.500,1822.000,1.000,665.000,5.000,0
"03/11/08","00:04:52",28477.000,"cc",28295.992,6.00,6,0.100,20801.000,0.200,3520.000,0.300,1661.000,0.500,1858.000,1.000,637.000,5.000,0
"03/11/08","00:04:58",28540.000,"cc",28355.488,6.00,6,0.100,20856.000,0.200,3566.000,0.300,1652.000,0.500,1819.000,1.000,647.000,5.000,0
"03/11/08","00:05:04",28269.000,"cc",28278.152,6.00,6,0.100,20524.000,0.200,3626.000,0.300,1628.000,0.500,1845.000,1.000,646.000,5.000,0
"03/11/08","00:05:10",28388.000,"cc",28328.510,6.00,6,0.100,20955.000,0.200,3482.000,0.300,1487.000,0.500,1822.000,1.000,642.000,5.000,0
"03/11/08","00:05:16",28255.000,"cc",28328.174,6.00,6,0.100,20904.000,0.200,3466.000,0.300,1486.000,0.500,1781.000,1.000,618.000,5.000,0
"03/11/08","00:05:22",28188.000,"cc",28246.150,6.00,6,0.100,20788.000,0.200,3377.000,0.300,1607.000,0.500,1760.000,1.000,656.000,5.000,0
"03/11/08","00:05:28",28637.000,"cc",28291.065,6.00,6,0.100,21203.000,0.200,3473.000,0.300,1556.000,0.500,1757.000,1.000,648.000,5.000,0
"03/11/08","00:05:34",28497.000,"cc",28332.027,6.00,6,0.100,20993.000,0.200,3466.000,0.300,1563.000,0.500,1797.000,1.000,678.000,5.000,0
"03/11/08","00:05:40",28426.000,"cc",28380.273,6.00,6,0.100,20943.000,0.200,3502.000,0.300,1579.000,0.500,1752.000,1.000,650.000,5.000,0
"03/11/08","00:05:46",28227.000,"cc",28304.889,6.00,6,0.100,20758.000,0.200,3466.000,0.300,1573.000,0.500,1767.000,1.000,663.000,5.000,0
"03/11/08","00:05:52",28237.000,"cc",28323.318,6.00,6,0.100,20810.000,0.200,3484.000,0.300,1537.000,0.500,1753.000,1.000,653.000,5.000,0
"03/11/08","00:05:58",28067.000,"cc",28358.246,6.00,6,0.100,20750.000,0.200,3431.000,0.300,1551.000,0.500,1711.000,1.000,624.000,5.000,0
"03/11/08","00:06:04",28223.000,"cc",28282.934,6.00,6,0.100,20799.000,0.200,3446.000,0.300,1576.000,0.500,1755.000,1.000,647.000,5.000,0
"03/11/08","00:06:10",28488.000,"cc",28220.477,6.00,6,0.100,21003.000,0.200,3496.000,0.300,1613.000,0.500,1734.000,1.000,642.000,5.000,0
"03/11/08","00:06:16",28722.000,"cc",28432.967,6.00,6,0.100,21175.000,0.200,3552.000,0.300,1589.000,0.500,1743.000,1.000,663.000,5.000,0
"03/11/08","00:06:22",28379.000,"cc",28312.547,6.00,6,0.100,20707.000,0.200,3483.000,0.300,1610.000,0.500,1896.000,1.000,683.000,5.000,0
"03/11/08","00:06:28",28501.000,"cc",28289.373,6.00,6,0.100,20915.000,0.200,3515.000,0.300,1572.000,0.500,1837.000,1.000,662.000,5.000,0
"03/11/08","00:06:34",28574.000,"cc",28315.727,6.00,6,0.100,21104.000,0.200,3489.000,0.300,1567.000,0.500,1784.000,1.000,630.000,5.000,0
"03/11/08","00:06:40",28102.000,"cc",28291.631,6.00,6,0.100,20728.000,0.200,3553.000,0.300,1512.000,0.500,1691.000,1.000,618.000,5.000,0
"03/11/08","00:06:46",28446.000,"cc",28300.133,6.00,6,0.100,21023.000,0.200,3469.000,0.300,1573.000,0.500,1729.000,1.000,652.000,5.000,0
"03/11/08","00:06:52",28028.000,"cc",28225.570,6.00,6,0.100,20724.000,0.200,3423.000,0.300,1512.000,0.500,1740.000,1.000,629.000,5.000,0
"03/11/08","00:06:58",28535.000,"cc",28335.830,6.00,6,0.100,21047.000,0.200,3520.000,0.300,1608.000,0.500,1724.000,1.000,636.000,5.000,0
"03/11/08","00:07:04",28659.000,"cc",28340.602,6.00,6,0.100,21241.000,0.200,3416.000,0.300,1590.000,0.500,1798.000,1.000,614.000,5.000,0
"03/11/08","00:07:10",28368.000,"cc",28387.223,6.00,6,0.100,20944.000,0.200,3477.000,0.300,1557.000,0.500,1737.000,1.000,653.000,5.000,0
"03/11/08","00:07:16",28083.000,"cc",28276.875,6.00,6,0.100,20754.000,0.200,3343.000,0.300,1553.000,0.500,1737.000,1.000,696.000,5.000,0
"03/11/08","00:07:22",27741.000,"cc",28348.359,6.00,6,0.100,20590.000,0.200,3353.000,0.300,1473.000,0.500,1687.000,1.000,638.000,5.000,0
"03/11/08","00:07:28",28391.000,"cc",28298.006,6.00,6,0.100,21014.000,0.200,3399.000,0.300,1597.000,0.500,1714.000,1.000,667.000,5.000,0
"03/11/08","00:07:34",28097.000,"cc",28326.395,6.00,6,0.100,20867.000,0.200,3429.000,0.300,1446.000,0.500,1712.000,1.000,643.000,5.000,0
"03/11/08","00:07:40",28317.000,"cc",28264.590,6.00,6,0.100,20940.000,0.200,3443.000,0.300,1543.000,0.500,1773.000,1.000,618.000,5.000,0
"03/11/08","00:07:46",28341.000,"cc",28322.760,6.00,6,0.100,20785.000,0.200,3450.000,0.300,1589.000,0.500,1871.000,1.000,646.000,5.000,0
"03/11/08","00:07:52",28738.000,"cc",28276.938,6.00,6,0.100,21066.000,0.200,3605.000,0.300,1595.000,0.500,1824.000,1.000,648.000,5.000,0
"03/11/08","00:07:58",28840.000,"cc",28400.371,6.00,6,0.100,21390.000,0.200,3480.000,0.300,1543.000,0.500,1785.000,1.000,642.000,5.000,0
"03/11/08","00:08:04",28158.000,"cc",28319.926,6.00,6,0.100,20655.000,0.200,3456.000,0.300,1615.000,0.500,1776.000,1.000,656.000,5.000,0
"03/11/08","00:08:10",27931.000,"cc",28265.068,6.00,6,0.100,20756.000,0.200,3407.000,0.300,1504.000,0.500,1686.000,1.000,578.000,5.000,0
"03/11/08","00:08:16",28311.000,"cc",28278.256,6.00,6,0.100,20852.000,0.200,3399.000,0.300,1572.000,0.500,1827.000,1.000,661.000,5.000,0
"03/11/08","00:08:22",28742.000,"cc",28435.121,6.00,6,0.100,21076.000,0.200,3615.000,0.300,1566.000,0.500,1857.000,1.000,628.000,5.000,0
"03/11/08","00:08:28",28379.000,"cc",28180.811,6.00,6,0.100,20973.000,0.200,3474.000,0.300,1536.000,0.500,1801.000,1.000,595.000,5.000,0
"03/11/08","00:08:34",28749.000,"cc",28345.648,6.00,6,0.100,21058.000,0.200,3581.000,0.300,1635.000,0.500,1837.000,1.000,638.000,5.000,0
"03/11/08","00:08:40",28284.000,"cc",28374.272,6.00,6,0.100,20989.000,0.200,3427.000,0.300,1544.000,0.500,1676.000,1.000,648.000,5.000,0
"03/11/08","00:08:46",28386.000,"cc",28353.152,6.00,6,0.100,20746.000,0.200,3522.000,0.300,1614.000,0.500,1858.000,1.000,646.000,5.000,0
"03/11/08","00:08:52",28687.000,"cc",28314.340,6.00,6,0.100,21035.000,0.200,3568.000,0.300,1619.000,0.500,1829.000,1.000,636.000,5.000,0
"03/11/08","00:08:58",28604.000,"cc",28292.691,6.00,6,0.100,20875.000,0.200,3520.000,0.300,1663.000,0.500,1843.000,1.000,703.000,5.000,0
"03/11/08","00:09:04",28588.000,"cc",28325.289,6.00,6,0.100,20999.000,0.200,3608.000,0.300,1552.000,0.500,1796.000,1.000,633.000,5.000,0
"03/11/08","00:09:10",27740.000,"cc",28264.420,6.00,6,0.100,20447.000,0.200,3476.000,0.300,1509.000,0.500,1691.000,1.000,617.000,5.000,0
"03/11/08","00:09:16",28332.000,"cc",28407.305,6.00,6,0.100,21007.000,0.200,3434.000,0.300,1554.000,0.500,1706.000,1.000,631.000,5.000,0
"03/11/08","00:09:22",27924.000,"cc",28277.924,6.00,6,0.100,20590.000,0.200,3435.000,0.300,1469.000,0.500,1796.000,1.000,634.000,5.000,0
"03/11/08","00:09:28",28294.000,"cc",28397.027,6.00,6,0.100,20845.000,0.200,3534.000,0.300,1517.000,0.500,1815.000,1.000,583.000,5.000,0
"03/11/08","00:09:34",28679.000,"cc",28297.869,6.00,6,0.100,21151.000,0.200,3496.000,0.300,1612.000,0.500,1746.000,1.000,674.000,5.000,0
"03/11/08","00:09:40",28350.000,"cc",28341.705,6.00,6,0.100,20948.000,0.200,3494.000,0.300,1491.000,0.500,1758.000,1.000,659.000,5.000,0
"03/11/08","00:09:46",27857.000,"cc",28345.574,6.00,6,0.100,20729.000,0.200,3326.000,0.300,1453.000,0.500,1707.000,1.000,642.000,5.000,0
"03/11/08","00:09:52",28307.000,"cc",28289.496,6.00,6,0.100,20882.000,0.200,3551.000,0.300,1511.000,0.500,1711.000,1.000,652.000,5.000,0
"03/11/08","00:09:58",27266.000,"cc",28187.018,6.00,6,0.100,20365.000,0.200,3377.000,0.300,1363.000,0.500,1613.000,1.000,548.000,5.000,0
"03/11/08","00:10:04",27804.000,"cc",28351.377,6.00,6,0.100,20548.000,0.200,3498.000,0.300,1460.000,0.500,1664.000,1.000,634.000,5.000,0
"03/11/08","00:10:10",28013.000,"cc",28306.664,6.00,6,0.100,20775.000,0.200,3471.000,0.300,1447.000,0.500,1675.000,1.000,645.000,5.000,0
"03/11/08","00:10:16",27869.000,"cc",28361.920,6.00,6,0.100,20863.000,0.200,3346.000,0.300,1424.000,0.500,1670.000,1.000,566.000,5.000,0
"03/11/08","00:10:22",27621.000,"cc",28357.791,6.00,6,0.100,20619.000,0.200,3365.000,0.300,1385.000,0.500,1621.000,1.000,631.000,5.000,0
"03/11/08","00:10:28",27221.000,"cc",28290.850,6.00,6,0.100,20156.000,0.200,3394.000,0.300,1381.000,0.500,1682.000,1.000,608.000,5.000,0
"03/11/08","00:10:34",27203.000,"cc",28317.445,6.00,6,0.100,20175.000,0.200,3409.000,0.300,1363.000,0.500,1639.000,1.000,617.000,5.000,0
"03/11/08","00:10:40",27227.000,"cc",28276.492,6.00,6,0.100,20165.000,0.200,3423.000,0.300,1398.000,0.500,1641.000,1.000,600.000,5.000,0
"03/11/08","00:10:46",27100.000,"cc",28306.664,6.00,6,0.100,20128.000,0.200,3353.000,0.300,1421.000,0.500,1619.000,1.000,579.000,5.000,0
"03/11/08","00:10:52",27331.000,"cc",28373.315,6.00,6,0.100,20134.000,0.200,3435.000,0.300,1483.000,0.500,1644.000,1.000,635.000,5.000,0
"03/11/08","00:10:58",27771.000,"cc",28285.004,6.00,6,0.100,20498.000,0.200,3516.000,0.300,1455.000,0.500,1657.000,1.000,645.000,5.000,0
"03/11/08","00:11:04",27222.000,"cc",28349.014,6.00,6,0.100,20267.000,0.200,3331.000,0.300,1461.000,0.500,1613.000,1.000,550.000,5.000,0
"03/11/08","00:11:10",26560.000,"cc",28236.557,6.00,6,0.100,19826.000,0.200,3279.000,0.300,1375.000,0.500,1472.000,1.000,608.000,5.000,0
"03/11/08","00:11:16",26621.000,"cc",28309.316,6.00,6,0.100,19806.000,0.200,3428.000,0.300,1272.000,0.500,1534.000,1.000,581.000,5.000,0
"03/11/08","00:11:22",26918.000,"cc",28358.385,6.00,6,0.100,19979.000,0.200,3450.000,0.300,1383.000,0.500,1508.000,1.000,598.000,5.000,0
"03/11/08","00:11:28",27120.000,"cc",28384.385,6.00,6,0.100,20120.000,0.200,3408.000,0.300,1344.000,0.500,1638.000,1.000,610.000,5.000,0
"03/11/08","00:11:34",26965.000,"cc",28415.484,6.00,6,0.100,20233.000,0.200,3361.000,0.300,1317.000,0.500,1516.000,1.000,538.000,5.000,0
"03/11/08","00:11:40",26818.000,"cc",28297.096,6.00,6,0.100,19871.000,0.200,3351.000,0.300,1387.000,0.500,1593.000,1.000,616.000,5.000,0
"03/11/08","00:11:46",27440.000,"cc",28235.854,6.00,6,0.100,20522.000,0.200,3310.000,0.300,1420.000,0.500,1603.000,1.000,585.000,5.000,0
"03/11/08","00:11:52",27567.000,"cc",28336.488,6.00,6,0.100,20388.000,0.200,3364.000,0.300,1545.000,0.500,1690.000,1.000,580.000,5.000,0
"03/11/08","00:11:58",27843.000,"cc",28326.889,6.00,6,0.100,20435.000,0.200,3451.000,0.300,1531.000,0.500,1754.000,1.000,672.000,5.000,0
"03/11/08","00:12:04",28672.000,"cc",28214.385,6.00,6,0.100,20695.000,0.200,3732.000,0.300,1682.000,0.500,1864.000,1.000,699.000,5.000,0
"03/11/08","00:12:10",28773.000,"cc",28355.133,6.00,6,0.100,20937.000,0.200,3661.000,0.300,1626.000,0.500,1879.000,1.000,670.000,5.000,0
"03/11/08","00:12:16",28291.000,"cc",28263.061,6.00,6,0.100,20718.000,0.200,3452.000,0.300,1538.000,0.500,1862.000,1.000,721.000,5.000,0
"03/11/08","00:12:22",27587.000,"cc",28340.707,6.00,6,0.100,20267.000,0.200,3403.000,0.300,1540.000,0.500,1740.000,1.000,637.000,5.000,0
"03/11/08","00:12:28",28058.000,"cc",28243.418,6.00,6,0.100,20661.000,0.200,3508.000,0.300,1555.000,0.500,1712.000,1.000,622.000,5.000,0
"03/11/08","00:12:34",27679.000,"cc",28329.154,6.00,6,0.100,20330.000,0.200,3454.000,0.300,1491.000,0.500,1780.000,1.000,624.000,5.000,0
"03/11/08","00:12:40",27700.000,"cc",28273.242,6.00,6,0.100,20523.000,0.200,3374.000,0.300,1536.000,0.500,1684.000,1.000,583.000,5.000,0
"03/11/08","00:12:46",27813.000,"cc",28329.789,6.00,6,0.100,20499.000,0.200,3445.000,0.300,1480.000,0.500,1773.000,1.000,616.000,5.000,0
"03/11/08","00:12:52",27848.000,"cc",28333.936,6.00,6,0.100,20320.000,0.200,3553.000,0.300,1569.000,0.500,1772.000,1.000,634.000,5.000,0
"03/11/08","00:12:58",28532.000,"cc",28354.180,6.00,6,0.100,20844.000,0.200,3563.000,0.300,1603.000,0.500,1856.000,1.000,666.000,5.000,0
"03/11/08","00:13:04",28490.000,"cc",28312.758,6.00,6,0.100,20755.000,0.200,3623.000,0.300,1656.000,0.500,1767.000,1.000,689.000,5.000,0
"03/11/08","00:13:10",28045.000,"cc",28269.277,6.00,6,0.100,20601.000,0.200,3456.000,0.300,1560.000,0.500,1789.000,1.000,639.000,5.000,0
"03/11/08","00:13:16",28268.000,"cc",28308.301,6.00,6,0.100,20709.000,0.200,3510.000,0.300,1616.000,0.500,1794.000,1.000,639.000,5.000,0
"03/11/08","00:13:22",28662.000,"cc",28322.553,6.00,6,0.100,20942.000,0.200,3593.000,0.300,1639.000,0.500,1800.000,1.000,688.000,5.000,0
"03/11/08","00:13:28",29085.000,"cc",28271.268,6.00,6,0.100,21160.000,0.200,3581.000,0.300,1750.000,0.500,1862.000,1.000,732.000,5.000,0
"03/11/08","00:13:34",28694.000,"cc",28279.762,6.00,6,0.100,20852.000,0.200,3595.000,0.300,1641.000,0.500,1942.000,1.000,664.000,5.000,0
"03/11/08","00:13:40",28392.000,"cc",28242.545,6.00,6,0.100,20878.000,0.200,3523.000,0.300,1579.000,0.500,1767.000,1.000,645.000,5.000,0
"03/11/08","00:13:46",28364.000,"cc",28364.148,6.00,6,0.100,20697.000,0.200,3533.000,0.300,1558.000,0.500,1874.000,1.000,702.000,5.000,0
"03/11/08","00:13:52",28196.000,"cc",28295.795,6.00,6,0.100,20651.000,0.200,3480.000,0.300,1608.000,0.500,1766.000,1.000,691.000,5.000,0
"03/11/08","00:13:58",28642.000,"cc",28396.928,6.00,6,0.100,21057.000,0.200,3520.000,0.300,1567.000,0.500,1803.000,1.000,695.000,5.000,0
"03/11/08","00:14:04",28487.000,"cc",28291.650,6.00,6,0.100,21165.000,0.200,3380.000,0.300,1585.000,0.500,1739.000,1.000,618.000,5.000,0
"03/11/08","00:14:10",28487.000,"cc",28308.481,6.00,6,0.100,20955.000,0.200,3440.000,0.300,1637.000,0.500,1815.000,1.000,640.000,5.000,0
"03/11/08","00:14:16",28245.000,"cc",28396.729,6.00,6,0.100,20726.000,0.200,3521.000,0.300,1540.000,0.500,1812.000,1.000,646.000,5.000,0
"03/11/08","00:14:22",28396.000,"cc",28310.975,6.00,6,0.100,21049.000,0.200,3371.000,0.300,1520.000,0.500,1832.000,1.000,624.000,5.000,0
"03/11/08","00:14:28",28527.000,"cc",28342.695,6.00,6,0.100,21046.000,0.200,3490.000,0.300,1602.000,0.500,1750.000,1.000,639.000,5.000,0
"03/11/08","00:14:34",28618.000,"cc",28287.438,6.00,6,0.100,21014.000,0.200,3494.000,0.300,1634.000,0.500,1814.000,1.000,662.000,5.000,0
"03/11/08","00:14:40",28315.000,"cc",28334.371,6.00,6,0.100,20930.000,0.200,3483.000,0.300,1537.000,0.500,1697.000,1.000,668.000,5.000,0
"03/11/08","00:14:46",28833.000,"cc",28357.535,6.00,6,0.100,21131.000,0.200,3540.000,0.300,1612.000,0.500,1885.000,1.000,665.000,5.000,0
"03/11/08","00:14:52",28570.000,"cc",28236.080,6.00,6,0.100,21016.000,0.200,3493.000,0.300,1651.000,0.500,1724.000,1.000,686.000,5.000,0
"03/11/08","00:14:58",28506.000,"cc",28302.328,6.00,6,0.100,21030.000,0.200,3409.000,0.300,1633.000,0.500,1782.000,1.000,652.000,5.000,0
"03/11/08","00:15:04",28602.000,"cc",28280.268,6.00,6,0.100,20911.000,0.200,3559.000,0.300,1633.000,0.500,1822.000,1.000,677.000,5.000,0
"03/11/08","00:15:10",28727.000,"cc",28327.865,6.00,6,0.100,21070.000,0.200,3496.000,0.300,1618.000,0.500,1869.000,1.000,674.000,5.000,0
"03/11/08","00:15:16",28317.000,"cc",28231.563,6.00,6,0.100,20798.000,0.200,3430.000,0.300,1517.000,0.500,1883.000,1.000,689.000,5.000,0
"03/11/08","00:15:22",28066.000,"cc",28324.053,6.00,6,0.100,20602.000,0.200,3505.000,0.300,1596.000,0.500,1722.000,1.000,641.000,5.000,0
"03/11/08","00:15:28",28050.000,"cc",28334.928,6.00,6,0.100,20900.000,0.200,3490.000,0.300,1421.000,0.500,1654.000,1.000,585.000,5.000,0
"03/11/08","00:15:34",27931.000,"cc",28276.854,6.00,6,0.100,20694.000,0.200,3435.000,0.300,1453.000,0.500,1736.000,1.000,613.000,5.000,0
"03/11/08","00:15:40",27913.000,"cc",28383.123,6.00,6,0.100,20457.000,0.200,3494.000,0.300,1521.000,0.500,1844.000,1.000,597.000,5.000,0
"03/11/08","00:15:46",28012.000,"cc",28381.922,6.00,6,0.100,20494.000,0.200,3481.000,0.300,1555.000,0.500,1860.000,1.000,622.000,5.000,0
"03/11/08","00:15:52",27729.000,"cc",28221.469,6.00,6,0.100,20399.000,0.200,3474.000,0.300,1485.000,0.500,1717.000,1.000,654.000,5.000,0
"03/11/08","00:15:58",28216.000,"cc",28372.174,6.00,6,0.100,20963.000,0.200,3422.000,0.300,1505.000,0.500,1674.000,1.000,652.000,5.000,0
"03/11/08","00:16:04",28006.000,"cc",28399.900,6.00,6,0.100,20800.000,0.200,3383.000,0.300,1510.000,0.500,1682.000,1.000,631.000,5.000,0
"03/11/08","00:16:10",27813.000,"cc",28281.488,6.00,6,0.100,20561.000,0.200,3425.000,0.300,1497.000,0.500,1687.000,1.000,643.000,5.000,0
"03/11/08","00:16:16",28274.000,"cc",28238.232,6.00,6,0.100,20968.000,0.200,3332.000,0.300,1568.000,0.500,1764.000,1.000,642.000,5.000,0
"03/11/08","00:16:22",28224.000,"cc",28360.293,6.00,6,0.100,20731.000,0.200,3521.000,0.300,1525.000,0.500,1796.000,1.000,651.000,5.000,0